This demonstration page uses our WeatherBlox Daily Observations layout. Learn more.

Left ArrowRight Arrow

Hourly Observations for April 18, 2018

Temp ( °F °C ) Dew Point ( °F °C ) Humidity (%) Winds ( mph kmh ) Pressure ( in mb ) Visibility ( mi km ) Precip ( " mm )
12:56 am 00:56 Cloudy with Light Rain 43 6.1 40 4.4 89 89 NW 9 15 29.80 1009 10 16 0.03 0.76
1:15 am 01:15 Cloudy with Light Rain 43 6 39 4 87 87 NNW 6 9 29.83 1010 10 16 0.00 0.00
1:46 am 01:46 Cloudy with Light Rain 39 4 37 3 93 93 NNE 13 20 29.83 1010 10 16 0.01 0.25
1:56 am 01:56 Cloudy with Light Rain 40 4.4 38 3.3 93 93 NNE 15 24 29.78 1009 10 16 0.01 0.25
2:07 am 02:07 Cloudy with Light Rain 39 4 37 3 93 93 N 18 30 29.85 1011 10 16 0.00 0.03
2:14 am 02:14 Cloudy with Light Rain 37 3 37 3 100 100 N 18 30 29.85 1011 10 16 0.00 0.03
2:56 am 02:56 Cloudy with Light Rain 38 3.3 36 2.2 93 93 NNW 12 19 29.83 1010 10 16 0.00 0.03
3:13 am 03:13 Cloudy 37 3 36 2 93 93 NNW 14 22 29.91 1013 10 16 0.00 0.03
3:39 am 03:39 Cloudy with Light Rain 37 3 36 2 93 93 NW 21 33 29.94 1014 10 16 0.00 0.00
3:46 am 03:46 Cloudy 37 3 36 2 93 93 NNW 18 30 29.94 1014 10 16 0.00 0.03
3:56 am 03:56 Cloudy 37 2.8 35 1.7 93 93 NNW 14 22 29.85 1011 10 16 0.00 0.03
4:27 am 04:27 Cloudy 36 2 34 1 93 93 NW 15 24 29.94 1014 10 16 0.00 0.00
4:29 am 04:29 Cloudy 36 2 34 1 93 93 NW 14 22 29.94 1014 10 16 0.00 0.00
4:56 am 04:56 Partly Cloudy 36 2.2 33 0.6 89 89 NW 18 30 29.86 1011 10 16 0.00 0.00
5:09 am 05:09 Mostly Cloudy 36 2 34 1 93 93 NW 17 28 29.94 1014 10 16 0.00 0.00
5:36 am 05:36 Cloudy 36 2 32 0 87 87 NW 21 33 29.94 1014 10 16 0.00 0.00
5:56 am 05:56 Mostly Cloudy 36 2.2 32 0 86 86 NW 17 28 29.90 1012 10 16 0.00 0.00
6:56 am 06:56 Cloudy 36 2.2 31 -0.6 82 82 NW 20 31 29.94 1014 10 16 0.00 0.00
7:56 am 07:56 Cloudy 35 1.7 28 -2.2 76 76 NW 23 37 29.98 1015 10 16 0.00 0.00
8:56 am 08:56 Cloudy 34 1.1 29 -1.7 82 82 N 23 37 30.02 1017 10 16 0.00 0.00
9:56 am 09:56 Cloudy 34 1.1 28 -2.2 79 79 NNW 25 41 30.07 1018 10 16 0.00 0.00
10:56 am 10:56 Mostly Cloudy 39 3.9 28 -2.2 65 65 NNW 24 39 30.10 1019 10 16 0.00 0.00
11:24 am 11:24 Mostly Cloudy 39 4 28 -2 65 65 NNW 22 35 30.15 1021 10 16 0.00 0.00
11:36 am 11:36 Cloudy 39 4 28 -2 65 65 NNW 22 35 30.15 1021 10 16 0.00 0.00
11:56 am 11:56 Cloudy 39 3.9 27 -2.8 62 62 NNW 28 44 30.13 1020 10 16 0.00 0.00
12:08 pm 12:08 Cloudy 39 4 28 -2 65 65 NNW 23 37 30.18 1022 10 16 0.05 1.27
12:15 pm 12:15 Cloudy 41 5 28 -2 61 61 NNW 26 43 30.18 1022 10 16 0.00 0.00
12:56 pm 12:56 Cloudy 42 5.6 29 -1.7 60 60 NNW 23 37 30.15 1021 10 16 0.05 1.27
1:21 pm 13:21 Cloudy 43 6 30 -1 61 61 NNW 22 35 30.15 1021 10 16 0.00 0.00
1:56 pm 13:56 Mostly Cloudy 45 7.2 30 -1.1 56 56 NNW 21 33 30.16 1021 10 16 0.00 0.00
2:56 pm 14:56 Cloudy 46 7.8 31 -0.6 56 56 N 21 33 30.18 1022 10 16 0.00 0.00
3:56 pm 15:56 Cloudy 46 7.8 31 -0.6 56 56 N 21 33 30.19 1022 10 16 0.00 0.00
5:56 pm 17:56 Partly Cloudy 45 7.2 31 -0.6 58 58 N 22 35 30.23 1024 10 16 0.00 0.00
6:56 pm 18:56 Mostly Sunny 45 7.2 31 -0.6 58 58 N 16 26 30.23 1024 10 16 0.00 0.00
7:56 pm 19:56 Sunny 43 6.1 31 -0.6 63 63 N 12 19 30.25 1025 10 16 0.00 0.00
8:56 pm 20:56 Clear 39 3.9 30 -1.1 70 70 NNW 6 9 30.28 1025 10 16 0.00 0.00
9:56 pm 21:56 Clear 35 1.7 29 -1.7 78 78 N 6 9 30.31 1026 10 16 0.00 0.00
10:56 pm 22:56 Clear 32 0 28 -2.2 85 85 N 6 9 30.33 1027 10 16 0.00 0.00
11:56 pm 23:56 Clear 33 0.6 28 -2.2 82 82 NNW 8 13 30.35 1028 10 16 0.00 0.00

Powered by AerisWeather